Weather History for Russellville, AR

Change the Weather History Date:

Friday, November 22, 2013

  Actual Average (KHOT) Record (KHOT)
Temperature  
Mean Temperature 48 °F -  
Max Temperature 57 °F 61 °F 77 °F (1974)
Min Temperature 39 °F 38 °F 18 °F (1964)
Degree Days  
Heating Degree Days 17    
Moisture  
Dew Point 44 °F    
Average Humidity 83    
Maximum Humidity 96    
Minimum Humidity 66    
Precipitation  
Precipitation 0.54 in - - ()
Sea Level Pressure  
Sea Level Pressure 30.32 in    
Wind  
Wind Speed 6 mph (NNW)    
Max Wind Speed 13 mph    
Max Gust Speed -    
Visibility 9 miles    
Events Rain , Thunderstorm    
Averages and records for this station are not official NWS values.
T = Trace of Precipitation, MM = Missing Value Source: NWS Daily Summary

Daily Weather History Graph

Daily Weather History Graph

Search for Another Location

Airport:

Trip Planner

Search our weather history database for the weather conditions in past years. The results will help you decide how hot, cold, wet, or windy it might be!

Date:

Astronomy

Nov. 22, 2013 Rise Set
Actual Time 6:54 AM CST 5:02 PM CST
Civil Twilight 6:27 AM CST 5:29 PM CST
Nautical Twilight 5:56 AM CST 6:00 PM CST
Astronomical Twilight 5:25 AM CST 6:31 PM CST
Moon 9:32 PM CST (11/22) 10:40 AM CST (11/22)
Length of Visible Light 11h 02m
Length of Day
10h 08m
Waning Gibbous, 78% of the Moon is Illuminated
Nov 22
Waning Gibbous
Nov 25
Last Quarter
Dec 2
New
Dec 9
First Quarter
Dec 17
Full

Hourly Weather History & Observations

Time (CST) Temp. Windchill Dew Point Humidity Pressure Visibility Wind Dir Wind Speed Gust Speed Precip Events Conditions
12:15 AM 57.2 °F - 55.4 °F 94% 30.16 in 3.0 mi Calm Calm - N/A Rain Light Rain
12:53 AM 57.0 °F - 55.9 °F 96% 30.14 in 5.0 mi NW 5.8 mph - N/A Rain Rain
1:12 AM 57.2 °F - 55.4 °F 94% 30.17 in 5.0 mi WNW 4.6 mph - N/A Rain , Thunderstorm Rain
1:27 AM 57.2 °F - 55.4 °F 94% 30.18 in 7.0 mi WNW 3.5 mph - N/A Rain Light Rain
1:53 AM 57.0 °F - 55.9 °F 96% 30.17 in 10.0 mi NNW 4.6 mph - N/A   Overcast
2:26 AM 57.2 °F - 55.4 °F 94% 30.18 in 8.0 mi NW 5.8 mph - N/A   Overcast
2:53 AM 57.0 °F - 55.0 °F 93% 30.18 in 8.0 mi NW 4.6 mph - N/A   Overcast
3:53 AM 57.0 °F - 55.0 °F 93% 30.19 in 6.0 mi NNW 5.8 mph - N/A   Overcast
4:38 AM 55.4 °F - 53.6 °F 94% 30.22 in 7.0 mi WNW 8.1 mph - N/A   Overcast
4:45 AM 55.4 °F - 53.6 °F 94% 30.22 in 8.0 mi WNW 10.4 mph - N/A   Overcast
4:53 AM 54.0 °F - 52.0 °F 93% 30.21 in 8.0 mi WNW 6.9 mph - N/A   Overcast
5:17 AM 53.6 °F - 51.8 °F 94% 30.23 in 5.0 mi West 10.4 mph - N/A   Overcast
5:26 AM 53.6 °F - 51.8 °F 94% 30.24 in 6.0 mi WNW 8.1 mph - N/A   Overcast
5:51 AM 53.6 °F - 51.8 °F 94% 30.26 in 10.0 mi North 8.1 mph - N/A   Overcast
5:53 AM 53.1 °F - 50.0 °F 89% 30.25 in 10.0 mi North 5.8 mph - N/A   Overcast
6:30 AM 51.8 °F - 48.2 °F 88% 30.29 in 10.0 mi North 8.1 mph - N/A   Overcast
6:53 AM 51.1 °F - 46.0 °F 83% 30.30 in 10.0 mi North 12.7 mph - N/A   Overcast
7:39 AM 48.2 °F - 44.6 °F 87% 30.34 in 7.0 mi North 8.1 mph - N/A   Overcast
7:53 AM 48.0 °F - 43.0 °F 83% 30.33 in 10.0 mi North 8.1 mph - N/A   Overcast
8:33 AM 46.4 °F 42.9 °F 41.0 °F 81% 30.36 in 10.0 mi North 6.9 mph - N/A   Overcast
8:53 AM 46.9 °F - 41.0 °F 80% 30.37 in 10.0 mi North 6.9 mph - N/A   Overcast
9:53 AM 46.9 °F - 41.0 °F 80% 30.40 in 10.0 mi NW 6.9 mph - 0.47 in   Overcast
10:53 AM 48.0 °F - 39.0 °F 71% 30.41 in 10.0 mi North 9.2 mph - N/A   Overcast
11:23 AM 46.4 °F 42.4 °F 39.2 °F 76% 30.42 in 10.0 mi NNW 8.1 mph - N/A   Overcast
11:36 AM 48.2 °F - 39.2 °F 71% 30.42 in 10.0 mi North 8.1 mph - N/A   Overcast
11:53 AM 46.9 °F - 37.9 °F 71% 30.40 in 10.0 mi North 9.2 mph - N/A   Overcast
12:53 PM 46.0 °F 42.5 °F 37.0 °F 71% 30.39 in 10.0 mi North 6.9 mph - N/A   Overcast
1:17 PM 46.4 °F 41.9 °F 37.4 °F 71% 30.38 in 10.0 mi NNE 9.2 mph - N/A   Overcast
1:53 PM 46.0 °F 41.0 °F 37.0 °F 71% 30.37 in 10.0 mi NNW 10.4 mph - N/A   Overcast
2:03 PM 46.4 °F 41.5 °F 37.4 °F 71% 30.38 in 10.0 mi North 10.4 mph - N/A   Overcast
2:48 PM 46.4 °F 41.9 °F 35.6 °F 66% 30.39 in 10.0 mi NNW 9.2 mph - N/A   Overcast
2:53 PM 46.0 °F 41.0 °F 36.0 °F 68% 30.39 in 10.0 mi North 10.4 mph - N/A   Overcast
3:53 PM 45.0 °F 39.7 °F 36.0 °F 71% 30.40 in 10.0 mi North 10.4 mph - N/A   Overcast
4:53 PM 43.0 °F 37.2 °F 35.1 °F 74% 30.39 in 10.0 mi NNE 10.4 mph - N/A   Overcast
5:53 PM 43.0 °F 38.2 °F 34.0 °F 71% 30.41 in 10.0 mi North 8.1 mph - N/A   Overcast
6:53 PM 44.1 °F 40.8 °F 35.1 °F 71% 30.42 in 10.0 mi North 5.8 mph - N/A   Overcast
7:53 PM 42.1 °F 37.1 °F 36.0 °F 79% 30.43 in 7.0 mi North 8.1 mph - 0.01 in Rain Light Rain
8:53 PM 41.0 °F 37.1 °F 37.0 °F 86% 30.43 in 4.0 mi North 5.8 mph - 0.04 in Rain Light Rain
9:53 PM 39.9 °F 35.1 °F 36.0 °F 86% 30.43 in 9.0 mi North 6.9 mph - 0.02 in   Overcast
10:53 PM 39.9 °F 36.7 °F 36.0 °F 86% 30.44 in 10.0 mi NNW 4.6 mph - N/A   Overcast
11:20 PM 39.2 °F 34.2 °F 35.6 °F 87% 30.45 in 10.0 mi North 6.9 mph - N/A   Overcast
11:53 PM 39.9 °F 36.7 °F 35.1 °F 83% 30.45 in 10.0 mi North 4.6 mph - N/A   Overcast